Location: Betzi
(47.2343°N, 9.5260°E)
Time: 21:42:13
(UTC+00:00)

Meteor 1-24 Rocket - Pass Details

Date: 27 May 2022
Orbit: 789 x 927 km, 81.3° (Epoch: 29 June)

Event Time Altitude Azimuth Distance (km) Brightness Sun altitude
Exits shadow 00:25:39 25° 150° (SSE) 1,646 4.8 -19.9°
Maximum altitude 00:28:28 44° 94° (E) 1,140 4.4 -19.7°
Drops below altitude 10° 00:33:37 10° 23° (NNE) 2,415 7.3 -19.5°
Sets 00:36:04 0° 17° (NNE) 3,335 8.5 -19.3°
